Regional Weather Roundup
Issued by NWS Charleston, SC

Current Version | Previous Version | Text Only | Print | Product List | Glossary Off
Versions: 1 2 3 4 5 6 7 8 9 10 11 12 13 14 15 16 17 18 19 20 21 22 23 24 25 26 27 28 29 30 31 32 33 34 35 36 37 38 39 40 41 42 43 44 45 46 47 48 49 50

000
ASUS42 KCHS 230710
RWRCHS

REGIONAL WEATHER ROUNDUP
NATIONAL WEATHER SERVICE CHARLESTON SC
300 AM EDT WED APR 23 2014

NOTE: "FAIR" INDICATES FEW OR NO CLOUDS BELOW 12,000 FEET WITH NO
SIGNIFICANT WEATHER AND/OR OBSTRUCTIONS TO VISIBILITY.

NOT ALL STATIONS ARE QUALITY CONTROLLED BY THE NATIONAL
WEATHER SERVICE. USE DATA WITH CAUTION...ESPECIALLY
DEWPOINT OBSERVATIONS.

SCZ027-030-031-034>040-042>050-230800-
...SOUTH CAROLINA...

CITY           SKY/WX    TMP DP  RH WIND       PRES   REMARKS
N CHARLESTON   CLEAR     64  61  90 W6        29.77F
WATERFRONT PRK   N/A     64 N/A N/A W8          N/A
FORT JOHNSON   NOT AVBL
MOUNT PLEASANT LGT RAIN  64  63  94 W6        29.77F
JOHNS ISLAND   SUNNY     66  63  88 W7        29.78S
PINOPOLIS        N/A     66  61  82 W10       29.69F
MONCKS CORNER  FAIR      64  63  94 CALM      29.76F
SUMMERVILLE    NOT AVBL
BEAUFORT MCAS  CLEAR     64  60  87 NW10      29.79F
BEAUFORT ARPT  FAIR      64  63  94 W9        29.79F
HILTON HEAD IS NOT AVBL
GEORGETOWN     NOT AVBL
WALTERBORO     SUNNY     61 N/A N/A W6        29.78F HAZE
ORANGEBURG     CLEAR     62  58  86 W6        29.78F FOG
BARNWELL       FAIR      61  61 100 W6        29.80S FOG
AIKEN          FAIR      59  59 100 W6        29.82F FOG
MANNING        FAIR      63 N/A N/A CALM      29.76S
KINGSTREE      NOT AVBL
COLUMBIA       PTCLDY    59  58  96 CALM      29.76F FOG
SUMTER         CLEAR     61  60  96 W8        29.74S
FLORENCE       CLEAR     62  60  93 W7        29.73F
MYRTLE BEACH   PTCLDY    63  59  88 W8        29.74S
N MYRTLE BEACH PTCLDY    64  59  83 W6        29.73F

$$

GAZ063-065-086>088-099>101-113>116-118-119-134-136>141-150-230800-
...GEORGIA...

CITY           SKY/WX    TMP DP  RH WIND       PRES   REMARKS
SAVANNAH ARPT  CLEAR     63  60  90 W6        29.81F
HUNTER AAF     CLEAR     60  60 100 W5        29.80F
FORT STEWART   CLEAR     61  61 100 W5        29.81F
STATESBORO     NOT AVBL
SYLVANIA       SUNNY     64  61  90 W5        29.82F FOG
CLAXTON        FAIR     N/A N/A N/A CALM      29.83S FOG
THOMSON        CLEAR     60  60 100 CALM      29.85F
AUGUSTA-BUSH   FOG       54  52  93 CALM      29.80S VSB 1/4
AUGUSTA-DANIEL CLEAR     63  60  90 W7        29.80F
SWAINSBORO     CLOUDY    61  61 100 W3        29.84F FOG
VIDALIA        PTCLDY    61  61 100 W3        29.84S FOG
ALMA           CLEAR     61  58  90 CALM      29.84F FOG
WAYCROSS       NOT AVBL
JESUP          NOT AVBL
BRUNSWICK      CLEAR     63  61  94 W5        29.85S
SAINT SIMONS   LGT RAIN  64  61  90 W6        29.84F

$$

SCZ027-028-034-036>038-045-046-048>050-GAZ119-141-230800-
...LAKE AND SUPPLEMENTAL COASTAL OBSERVATIONS...

STATION/POSITION TIME  TEMP    WIND        PRES    WAVE   SWELL
                       AIR SEA DIR/SP/G            HT/PER HT/PER/DIR
                 (UTC) (F)     (DEG/KT/KT) (MB)    (FT/S) (FT/S/D)
UPR LAKE MARION  NOT AVBL
WINYAH BAY       0600   65     260/  5     1007.0S
LAKE MURRAY      0600   62     280/  5/ 11 1007.8F
ACE BASIN NERRS  0600   65     270/  2     1009.0S
FORT PULASKI     NOT AVBL
SAPELO ISLAND    0600   65     250/  4     1010.0S

$$

ANZ835-935-AMZ111-154-330-350-352-354-374-450-454-472-230800-
...C-MAN AND BUOY OBSERVATIONS...

STATION/POSITION TIME  TEMP    WIND        PRES    WAVE   SWELL
                       AIR SEA DIR/SP/G            HT/PER HT/PER/DIR
                 (UTC) (F)     (DEG/KT/KT) (MB)    (FT/S) (FT/S/D)
FOLLY BEACH CMAN 0600   66     260/  5/  8 1008.9F
BUOY 41004       0700   67 70  280/ 14/ 16 1007.4F   3/ 9   2/ 9
BUOY 41008       0700   65 64  240/ 10/ 12 1009.7F   2/ 9   2/ 80/ 9
5E ST. MARYS GA  0700      66                N/A     2/ 9   2/ 90/11
FRYING PAN BUOY  0700   67 67  260/ 14/ 16 1006.1F   4/ 6   2/110/ 9
BUOY 41025       0700   70 76  280/ 16/ 19 1002.9F
CAPE LOOKOUT NC  0600   63     250/ 13/ 15 1004.9F
BUOY 41002       NOT AVBL
BUOY 41010       0700   74 75  230/ 12/ 14 1011.1F   4/ 9   3/ 40/ 9
BUOY 41012       NOT AVBL
ST AUGUSTINE FL  0700   64     270/ 10/ 12 1011.9F
CAPERS NEARSHORE NOT AVBL
FRIPP NEARSHORE  0600   65     280/  8/ 10   N/A


$$



USA.gov is the U.S. government's official web portal to all federal, state and local government web resources and services.